Lake Charles Regional, LA

4:38 AM CDT on October 24, 2017 (GMT -0500)
Lake Charles Regional

Weather History for KLCH - November, 2012

Change the Weather History Date:

Friday, November 30, 2012

  Actual Average Record
Temperature  
Mean Temperature 61 °F 57 °F  
Max Temperature 75 °F 67 °F 86 °F (1912)
Min Temperature 47 °F 47 °F 23 °F (1976)
Degree Days  
Heating Degree Days 4 9  
Month to date heating degree days 164 171  
Since 1 July heating degree days 206 207  
Cooling Degree Days 0 1  
Month to date cooling degree days 46 56  
Year to date cooling degree days 3184 2789  
Growing Degree Days 14 (Base 50)    
Moisture  
Dew Point 54 °F    
Average Humidity 79    
Maximum Humidity 100    
Minimum Humidity 57    
Precipitation  
Precipitation T in 0.14 in 3.21 in (1968)
Month to date precipitation 2.61 4.43  
Year to date precipitation 67.19 52.81  
Snow  
Snow 0.00 in 0.00 in 0.00 in ()
Month to date snowfall 0.0 0.0  
Since 1 July snowfall 0.0 0.0  
Since 1 September snowfall 0.0 0.0  
Snow Depth 0.00 in    
Sea Level Pressure  
Sea Level Pressure 30.21 in    
Wind  
Wind Speed 5 mph (ESE)    
Max Wind Speed 12 mph    
Max Gust Speed 16 mph    
Visibility 6 miles    
Events Fog , Rain    
T = Trace of Precipitation, MM = Missing Value Source: NWS Daily Summary

Daily Weather History Graph

Daily Weather History Graph

Search for Another Location

Airport or City:

Trip Planner

Search our weather history database for the weather conditions in past years. The results will help you decide how hot, cold, wet, or windy it might be!

Date:

Astronomy

Nov. 30, 2012 Rise Set
Actual Time 6:51 AM CST 5:12 PM CST
Civil Twilight 6:25 AM CST 5:38 PM CST
Nautical Twilight 5:55 AM CST 6:07 PM CST
Astronomical Twilight 5:26 AM CST 6:36 PM CST
Moon 7:06 PM CST (11/30) 8:23 AM CST (11/30)
Length of Visible Light 11h 13m
Length of Day
10h 21m
Waning Gibbous, 96% of the Moon is Illuminated
Nov 30
Waning Gibbous
Dec 6
Last Quarter
Dec 13
New
Dec 19
First Quarter
Dec 28
Full

Hourly Weather History & Observations

Time (CST) Temp. Windchill Dew Point Humidity Pressure Visibility Wind Dir Wind Speed Gust Speed Precip Events Conditions
12:41 AM 48.2 °F - 48.2 °F 100% 30.22 in 2.0 mi ENE 3.5 mph - N/A   Clear
12:45 AM 48.2 °F - 48.2 °F 100% 30.22 in 1.2 mi Calm Calm - N/A   Partly Cloudy
12:53 AM 48.9 °F - 48.0 °F 97% 30.25 in 1.0 mi Calm Calm - N/A   Mist
12:57 AM 48.2 °F - 48.2 °F 100% 30.22 in 3.0 mi Calm Calm - N/A   Mostly Cloudy
1:22 AM 48.2 °F - 46.4 °F 93% 30.22 in 1.8 mi ENE 3.5 mph - N/A   Mostly Cloudy
1:31 AM 46.4 °F 43.5 °F 46.4 °F 100% 30.22 in 0.2 mi ENE 5.8 mph - N/A Fog Fog
1:42 AM 46.4 °F 44.3 °F 46.4 °F 100% 30.22 in 0.5 mi ENE 4.6 mph - N/A Fog Fog
1:53 AM 48.9 °F - 48.0 °F 97% 30.24 in 0.5 mi ENE 4.6 mph - N/A Fog Fog
2:00 AM 48.2 °F - 48.2 °F 100% 30.22 in 0.2 mi East 3.5 mph - N/A Fog Fog
2:22 AM 46.4 °F - 46.4 °F 100% 30.22 in 0.8 mi Calm Calm - N/A   Mist
2:29 AM 46.4 °F 45.2 °F 46.4 °F 100% 30.22 in 0.5 mi ENE 3.5 mph - N/A Fog Fog
2:43 AM 46.4 °F 44.3 °F 46.4 °F 100% 30.21 in 0.2 mi ENE 4.6 mph - N/A Fog Fog
2:53 AM 48.0 °F - 46.9 °F 96% 30.24 in 0.2 mi ENE 4.6 mph - N/A Fog Fog
3:37 AM 48.2 °F - 48.2 °F 100% 30.20 in 0.5 mi Calm Calm - N/A Fog Fog
3:46 AM 50.0 °F - 48.2 °F 94% 30.20 in 0.2 mi East 3.5 mph - N/A Fog Fog
3:53 AM 50.0 °F - 50.0 °F 100% 30.22 in 0.5 mi Calm Calm - N/A Fog Fog
4:39 AM 50.0 °F - 48.2 °F 94% 30.20 in 0.5 mi ENE 3.5 mph - N/A Fog Fog
4:50 AM 51.8 °F - 50.0 °F 94% 30.20 in 2.0 mi ENE 3.5 mph - N/A   Overcast
4:51 AM 51.1 °F - 50.0 °F 96% 30.22 in 2.5 mi ENE 4.6 mph - N/A   Overcast
4:59 AM 51.8 °F - 50.0 °F 94% 30.20 in 4.0 mi East 3.5 mph - N/A   Overcast
5:53 AM 54.0 °F - 53.1 °F 97% 30.22 in 6.0 mi SE 6.9 mph - N/A   Mostly Cloudy
6:53 AM 54.0 °F - 54.0 °F 100% 30.23 in 5.0 mi ESE 4.6 mph - N/A   Overcast
7:53 AM 55.9 °F - 55.0 °F 97% 30.25 in 6.0 mi East 5.8 mph - N/A   Partly Cloudy
8:53 AM 60.1 °F - 57.9 °F 93% 30.26 in 10.0 mi ESE 8.1 mph - N/A   Mostly Cloudy
9:53 AM 64.9 °F - 60.1 °F 84% 30.27 in 10.0 mi ESE 9.2 mph - N/A   Mostly Cloudy
10:53 AM 69.1 °F - 60.1 °F 73% 30.27 in 10.0 mi ESE 8.1 mph - N/A   Overcast
11:53 AM 73.0 °F - 60.1 °F 64% 30.24 in 10.0 mi SSE 9.2 mph - N/A   Mostly Cloudy
12:53 PM 75.0 °F - 59.0 °F 57% 30.21 in 10.0 mi SE 9.2 mph 16.1 mph N/A   Mostly Cloudy
1:53 PM 73.0 °F - 59.0 °F 61% 30.19 in 10.0 mi South 8.1 mph - N/A   Mostly Cloudy
2:53 PM 73.0 °F - 57.0 °F 57% 30.18 in 10.0 mi SE 9.2 mph - N/A   Overcast
3:53 PM 71.1 °F - 59.0 °F 66% 30.18 in 10.0 mi South 5.8 mph - N/A   Mostly Cloudy
4:53 PM 68.0 °F - 60.1 °F 76% 30.18 in 10.0 mi South 4.6 mph - N/A   Mostly Cloudy
5:53 PM 66.0 °F - 60.1 °F 81% 30.19 in 10.0 mi South 4.6 mph - N/A   Overcast
6:53 PM 64.9 °F - 61.0 °F 87% 30.19 in 10.0 mi SSE 4.6 mph - N/A   Overcast
7:53 PM 63.0 °F - 60.1 °F 90% 30.20 in 10.0 mi SSE 4.6 mph - N/A   Mostly Cloudy
8:53 PM 62.6 °F - 59.0 °F 88% 30.18 in 10.0 mi Calm Calm - N/A   Mostly Cloudy
9:53 PM 62.1 °F - 59.0 °F 90% 30.20 in 10.0 mi Calm Calm - N/A   Mostly Cloudy
10:53 PM 62.1 °F - 59.0 °F 90% 30.20 in 10.0 mi SE 6.9 mph - 0.00 in Rain Light Rain
11:53 PM 62.1 °F - 59.0 °F 90% 30.20 in 10.0 mi Calm Calm - N/A   Overcast